Temperature
5 5 5 5 4 4 3 3 2 2 2 3 3 3 3 3 3 2 2 2 3 3 3 3 3 2 2 2 2 2 2 2 2 2 2 3 3 3
5 5 4 4 4 3 3 3 2 1 1 2 2 2 2 2 2 2 2 2 2 2 2 2 2 2 2 2 2 2 2 2 2 2 2 2 3 3
4 4 4 3 3 3 3 2 2 1 1 1 2 2 2 2 2 2 2 1 1 1 1 1 1 1 1 1 1 1 1 1 1 2 2 2 2 3
4 4 3 3 3 3 2 2 2 1 1 1 1 1 1 1 1 1 1 1 1 1 1 1 1 1 1 1 1 1 1 1 1 1 1 2 2 2
3 3 3 3 2 2 2 2 1 1 1 0 0 1 1 1 1 1 1 1 1 1 1 1 0 0 0 0 0 0 0 1 1 1 1 1 2 2
3 3 2 2 2 2 1 1 1 1 0 -0 -0 0 0 0 -0 -0 0 0 0 0 0 0 0 0 0 0 -0 -0 0 0 0 1 1 1 1 1
2 2 2 2 1 1 1 1 1 0 -0 -1 -1 -0 -0 -1 -1 -1 -1 -1 -1 -1 -1 -0 -0 -0 -0 -0 -1 -0 -0 -0 0 0 1 1 1 1
2 2 2 1 1 1 1 1 0 -0 -1 -1 -1 -1 -1 -1 -1 -2 -2 -2 -2 -1 -1 -1 -1 -1 -1 -1 -1 -1 -1 -0 -0 0 0 1 1 1
2 1 1 1 1 1 0 0 0 -0 -1 -1 -1 -1 -2 -2 -2 -2 -2 -2 -2 -2 -2 -2 -1 -1 -1 -1 -1 -1 -1 -1 -0 -0 -0 0 1 1
1 1 1 0 0 0 -0 -0 -0 -0 -1 -1 -1 -1 -2 -2 -2 -2 -2 -2 -2 -2 -3 -2 -2 -2 -1 -1 -1 -1 -1 -1 -1 -1 -0 0 0 1
0 0 0 0 -0 -0 -1 -1 -1 -1 -1 -1 -1 -1 -1 -2 -2 -2 -2 -3 -3 -2 -3 -3 -2 -2 -1 -1 -1 -1 -1 -1 -1 -1 -1 -0 0 0
0 0 -0 -0 -0 -1 -1 -1 -1 -1 -1 -1 -1 -1 -1 -2 -2 -2 -3 -3 -3 -3 -3 -3 -3 -3 -3 -2 -2 -2 -2 -1 -1 -1 -1 -1 -0 -0
-1 -0 -1 -1 -1 -1 -1 -1 -1 -1 -2 -2 -2 -2 -2 -2 -2 -2 -3 -3 -3 -3 -3 -4 -4 -4 -4 -3 -2 -2 -2 -2 -1 -1 -1 -1 -1 -0
-1 -1 -1 -1 -1 -1 -1 -1 -2 -2 -2 -2 -2 -2 -2 -2 -2 -3 -3 -3 -3 -3 -3 -3 -4 -4 -4 -4 -3 -2 -2 -2 -2 -1 -1 -1 -1 -1
-1 -1 -1 -1 -1 -1 -2 -2 -2 -2 -2 -2 -2 -3 -3 -3 -3 -3 -3 -3 -3 -3 -3 -3 -4 -4 -4 -4 -4 -3 -2 -2 -2 -2 -1 -1 -1 -1
-2 -2 -2 -2 -2 -2 -2 -2 -2 -2 -3 -3 -3 -3 -3 -3 -3 -3 -3 -3 -3 -3 -3 -3 -3 -4 -4 -3 -3 -3 -3 -3 -2 -2 -2 -2 -1 -1
-2 -2 -2 -2 -2 -2 -2 -2 -3 -3 -3 -3 -3 -3 -3 -3 -4 -4 -4 -4 -4 -4 -3 -3 -3 -3 -3 -3 -3 -3 -3 -2 -2 -2 -2 -2 -2 -2
-3 -3 -3 -3 -3 -3 -3 -3 -3 -3 -4 -4 -4 -4 -4 -4 -4 -4 -4 -4 -4 -4 -4 -4 -3 -3 -3 -3 -3 -3 -3 -3 -2 -2 -2 -2 -2 -2
-3 -3 -3 -3 -3 -4 -4 -4 -4 -4 -4 -4 -4 -4 -4 -4 -4 -4 -4 -4 -4 -4 -4 -4 -4 -4 -4 -4 -3 -3 -3 -3 -2 -2 -2 -2 -2 -2
-4 -4 -4 -4 -4 -4 -4 -4 -4 -4 -4 -4 -4 -4 -4 -4 -5 -5 -5 -5 -5 -4 -4 -4 -4 -4 -5 -5 -4 -3 -3 -3 -3 -2 -2 -2 -2 -2
-4 -4 -4 -4 -4 -4 -5 -5 -5 -5 -5 -5 -4 -5 -5 -5 -5 -5 -5 -5 -5 -4 -4 -4 -4 -4 -4 -4 -4 -3 -3 -3 -3 -3 -2 -2 -2 -2
-4 -5 -5 -5 -5 -5 -5 -5 -5 -5 -5 -5 -5 -5 -5 -5 -5 -5 -5 -5 -5 -4 -4 -4 -4 -4 -4 -4 -4 -4 -3 -3 -3 -3 -2 -2 -3 -3
-5 -5 -5 -5 -5 -5 -5 -5 -5 -5 -5 -5 -5 -5 -5 -5 -5 -5 -5 -5 -5 -4 -4 -4 -4 -4 -4 -4 -4 -3 -3 -3 -3 -3 -3 -2 -2 -2
Wind_Speed
3 3 4 4 4 4 5 5 6 8 10 9 8 9 12 14 16 17 18 19 22 22 23 23 24 24 24 24 24 24 24 24 24 25 25 26 27 26
3 3 4 4 4 4 5 5 6 8 9 9 10 12 13 14 17 17 17 20 20 20 22 23 24 24 23 23 23 24 24 24 25 25 26 27 26 26
3 4 4 5 4 5 5 5 6 7 10 11 11 12 14 14 14 15 16 16 15 19 21 22 23 23 23 23 23 23 23 24 25 26 27 27 26 26
3 4 5 4 6 5 5 6 6 7 9 13 12 12 14 14 14 15 14 14 14 18 20 21 22 22 22 22 22 23 23 23 24 25 25 25 24 24
3 4 5 5 6 5 6 6 6 7 8 10 12 11 12 12 14 14 15 13 14 16 18 19 20 21 21 21 22 22 22 22 22 23 23 23 22 22
3 4 5 5 6 7 6 7 7 8 8 9 10 11 11 12 12 12 13 13 13 13 14 17 18 18 19 19 20 21 21 21 22 22 23 22 22 21
4 4 4 6 7 7 6 7 7 7 8 8 9 10 11 12 12 11 13 13 13 10 12 13 13 12 13 16 17 20 21 21 22 22 22 22 21 19
4 5 5 5 6 8 9 9 8 8 8 8 9 11 12 13 12 12 12 13 10 9 12 13 11 11 11 11 17 20 20 21 22 21 21 21 19 16
4 4 4 5 6 6 7 8 8 9 10 9 10 11 12 12 13 13 13 13 12 12 11 11 11 11 11 13 18 19 20 21 21 20 20 19 18 16
4 4 5 5 5 7 7 7 8 8 8 8 9 10 11 11 11 11 12 13 12 9 9 9 11 11 11 11 15 17 20 20 19 19 19 18 17 15
4 4 5 5 6 8 7 8 9 8 8 10 12 12 14 14 12 9 10 10 10 9 8 7 9 11 10 9 11 17 18 18 18 18 18 18 16 14
3 4 5 5 7 8 6 7 8 9 9 10 10 10 10 10 11 8 8 8 9 7 7 7 8 8 7 7 9 12 12 15 17 17 17 17 16 10
3 4 4 6 7 8 7 6 8 9 9 8 8 8 8 8 8 8 8 7 8 7 7 8 7 8 6 8 9 10 10 10 11 12 14 16 15 11
3 4 5 7 7 8 6 7 9 8 6 6 7 7 7 7 8 9 9 9 8 9 10 9 6 8 8 9 8 9 10 10 9 9 9 12 12 13
3 5 7 7 7 5 6 8 7 5 5 6 7 7 7 8 8 8 9 9 9 8 8 8 7 7 7 7 7 8 8 8 8 9 9 8 8 8
3 4 5 5 4 5 5 5 4 5 5 6 6 7 7 7 7 7 8 8 8 7 8 9 9 8 7 8 7 8 8 7 8 9 8 7 7 7
4 3 3 3 4 4 4 5 5 5 6 6 6 6 6 7 7 7 7 7 7 8 9 9 9 8 6 6 6 7 7 7 8 8 7 7 7 6
3 2 3 3 4 4 5 5 5 5 6 6 6 6 6 7 7 7 7 7 8 8 8 9 9 7 5 3 4 6 7 7 8 8 7 5 6 6
2 2 3 4 4 4 4 5 5 6 6 6 6 6 6 6 7 7 7 7 7 8 8 8 7 7 7 7 6 6 6 7 8 7 7 5 5 6
2 3 3 4 4 5 5 5 5 6 6 6 6 6 6 6 7 7 7 8 8 8 8 7 7 6 6 6 6 7 9 7 6 6 6 5 5 5
3 3 3 4 4 4 5 5 5 5 6 6 6 6 6 6 6 7 7 9 8 7 8 8 7 9 6 5 4 5 7 9 7 5 5 5 5 5
3 4 4 4 4 5 5 5 5 5 6 6 6 6 6 6 6 7 7 7 7 7 8 7 7 6 4 4 5 6 7 8 8 10 8 5 3 3
4 4 4 4 4 4 5 5 6 5 6 6 5 6 6 6 6 6 6 6 6 7 7 7 6 5 5 5 5 5 7 7 6 7 7 10 10 8
Wind_Direction
281 285 287 288 286 286 287 287 292 302 306 308 315 314 319 317 317 316 315 318 318 317 317 316 316 317 316 315 313 312 311 310 308 305 302 299 295 292
286 288 291 291 290 290 290 289 285 288 291 301 309 313 316 315 318 317 316 316 315 317 318 318 318 317 317 317 316 314 313 312 310 308 305 301 296 293
286 290 293 296 297 297 297 294 292 291 290 300 307 313 316 318 319 319 318 317 316 318 318 319 320 319 319 318 318 317 315 313 311 310 307 303 297 294
290 292 294 298 298 299 298 297 296 295 295 301 309 316 318 320 320 320 321 319 316 318 318 318 318 319 320 320 319 318 317 315 314 312 311 308 302 298
292 292 297 300 300 302 300 300 300 301 299 300 307 315 316 321 322 321 320 319 319 319 319 319 320 321 320 320 320 321 320 319 319 318 317 315 311 306
301 297 297 298 299 304 304 305 306 305 305 304 308 315 319 322 323 324 324 324 320 319 320 320 320 321 320 322 322 324 325 325 324 322 321 319 315 310
307 303 301 303 306 308 308 309 311 308 309 309 313 317 321 327 327 323 320 320 317 319 323 321 321 321 323 323 324 328 330 330 329 328 326 325 321 314
304 307 306 301 306 306 309 311 309 307 310 311 311 315 318 322 322 320 319 320 317 324 321 315 318 318 319 322 327 330 330 331 331 332 333 333 332 328
303 307 310 312 312 314 314 313 309 308 307 305 305 311 313 318 318 317 316 314 307 312 315 308 315 316 318 321 325 331 333 333 333 335 337 340 340 339
305 305 305 309 321 326 319 316 314 314 314 309 306 309 312 314 314 309 308 308 304 307 315 307 316 318 318 317 325 333 337 339 339 339 341 344 347 347
314 310 309 311 326 329 319 315 316 320 322 318 316 314 315 317 321 319 319 321 318 317 325 314 315 319 315 316 327 334 337 341 345 347 349 351 354 354
323 317 313 321 326 325 316 315 318 323 326 325 325 325 325 326 330 323 318 316 316 314 331 328 319 327 319 317 328 332 335 340 342 346 351 354 356 358
319 320 319 329 325 324 321 316 319 321 319 322 324 327 331 332 331 328 321 312 309 302 314 322 314 319 312 312 320 330 335 337 338 343 350 358 1 4
308 313 321 326 322 323 326 331 330 327 322 324 327 330 332 331 329 326 322 315 305 299 307 312 306 314 316 315 319 328 334 338 342 345 349 353 359 4
310 317 320 323 323 323 336 338 335 330 327 326 326 326 326 323 322 324 325 324 320 315 315 315 313 313 314 312 316 323 326 332 342 346 349 352 353 353
322 319 322 328 328 329 335 337 335 330 324 320 321 322 326 328 330 333 332 332 330 329 330 332 327 319 316 314 315 321 327 330 336 341 344 350 354 357
328 320 325 331 339 339 338 337 335 333 329 326 325 327 331 332 332 334 333 332 331 332 334 335 334 326 314 315 317 325 330 333 336 339 341 349 355 359
323 313 321 328 327 326 328 330 331 331 329 327 326 328 331 331 330 332 334 333 331 332 333 334 335 336 335 336 329 322 333 334 336 342 345 348 360 3
324 313 316 321 321 322 323 324 325 326 326 325 325 328 330 329 328 330 333 332 332 331 332 334 337 341 347 345 339 342 334 333 338 347 354 359 4 2
319 308 310 314 316 318 320 321 322 324 325 324 324 327 328 328 328 329 331 331 331 331 334 339 341 339 330 320 317 327 340 337 340 346 351 0 9 6
311 308 307 309 309 311 314 315 316 317 318 320 322 324 326 327 327 327 328 330 331 333 334 334 329 324 312 311 324 338 346 354 353 346 342 352 6 19
307 305 306 307 308 308 309 310 313 314 315 315 319 323 324 324 324 326 329 330 332 331 327 327 331 337 344 348 344 342 345 352 5 14 16 17 8 14
306 304 303 304 303 304 306 307 309 310 311 314 318 322 325 327 327 326 329 330 331 332 334 338 344 348 344 341 345 349 351 355 5 21 30 33 41 43
Height
1505 1503 1502 1500 1498 1496 1494 1492 1490 1483 1477 1474 1472 1469 1465 1461 1455 1450 1446 1441 1435 1431 1426 1421 1415 1410 1405 1400 1395 1391 1386 1382 1378 1374 1370 1366 1363 1361
1501 1500 1498 1497 1495 1493 1491 1489 1486 1482 1476 1471 1468 1465 1460 1456 1451 1446 1441 1435 1430 1425 1420 1415 1410 1404 1399 1394 1390 1385 1380 1375 1371 1366 1362 1358 1355 1352
1498 1497 1495 1494 1492 1490 1487 1485 1482 1479 1473 1467 1465 1461 1456 1451 1446 1442 1436 1431 1425 1421 1416 1410 1405 1400 1394 1389 1384 1379 1374 1369 1364 1359 1354 1349 1346 1343
1495 1493 1492 1490 1488 1486 1484 1481 1478 1475 1471 1464 1460 1456 1452 1447 1442 1437 1432 1427 1422 1416 1411 1406 1400 1395 1390 1384 1379 1374 1368 1363 1358 1353 1347 1341 1338 1335
1492 1490 1489 1487 1485 1483 1480 1477 1474 1471 1468 1463 1456 1453 1448 1444 1438 1433 1428 1423 1417 1412 1407 1402 1396 1391 1385 1380 1374 1369 1363 1358 1353 1348 1342 1336 1332 1329
1489 1487 1485 1484 1482 1479 1477 1474 1471 1468 1464 1460 1454 1449 1445 1440 1435 1429 1423 1418 1413 1408 1403 1398 1392 1387 1381 1376 1370 1365 1359 1354 1348 1343 1337 1332 1327 1323
1486 1484 1482 1480 1478 1476 1474 1471 1468 1464 1461 1457 1452 1447 1442 1437 1432 1427 1421 1415 1409 1405 1399 1394 1389 1383 1378 1372 1367 1361 1356 1350 1345 1339 1333 1328 1323 1318
1483 1481 1479 1477 1475 1473 1471 1468 1465 1462 1458 1454 1450 1445 1440 1436 1430 1425 1420 1413 1406 1402 1397 1391 1387 1380 1375 1370 1364 1359 1353 1348 1342 1337 1331 1325 1320 1316
1480 1478 1476 1474 1472 1470 1467 1465 1462 1459 1456 1453 1448 1443 1438 1433 1428 1423 1418 1412 1406 1401 1395 1388 1384 1378 1373 1367 1362 1357 1351 1346 1340 1335 1330 1325 1320 1315
1477 1475 1473 1471 1469 1466 1464 1461 1459 1456 1453 1449 1445 1441 1436 1431 1427 1422 1416 1410 1404 1400 1395 1387 1381 1376 1370 1365 1360 1355 1350 1344 1339 1334 1329 1325 1320 1316
1474 1473 1471 1469 1467 1464 1461 1458 1455 1453 1450 1446 1442 1438 1434 1429 1425 1419 1414 1408 1402 1397 1394 1388 1380 1374 1368 1363 1359 1354 1349 1344 1339 1334 1329 1325 1321 1317
1471 1470 1468 1466 1464 1461 1459 1456 1452 1449 1446 1442 1439 1435 1431 1426 1422 1418 1413 1408 1402 1396 1392 1387 1381 1375 1367 1362 1358 1354 1349 1344 1340 1335 1331 1326 1323 1319
1469 1467 1465 1463 1461 1459 1456 1453 1450 1447 1443 1440 1436 1432 1428 1424 1420 1416 1412 1408 1402 1397 1393 1388 1382 1377 1372 1364 1357 1354 1350 1345 1340 1336 1332 1328 1325 1322
1466 1464 1462 1460 1458 1456 1454 1451 1448 1445 1441 1437 1434 1430 1426 1422 1418 1414 1410 1406 1402 1397 1392 1388 1383 1378 1372 1366 1360 1355 1351 1347 1342 1338 1334 1331 1327 1324
1464 1462 1460 1458 1456 1454 1451 1449 1446 1442 1439 1435 1432 1428 1424 1420 1416 1412 1408 1404 1400 1396 1391 1387 1383 1378 1374 1368 1362 1357 1352 1348 1345 1340 1337 1333 1330 1327
1462 1460 1458 1456 1454 1452 1449 1446 1443 1441 1437 1434 1430 1427 1423 1419 1415 1411 1407 1402 1398 1394 1391 1387 1382 1378 1373 1369 1364 1360 1355 1351 1347 1343 1339 1336 1333 1330
1459 1457 1455 1453 1451 1449 1447 1444 1442 1439 1436 1432 1429 1425 1422 1418 1414 1411 1407 1402 1398 1393 1389 1386 1382 1378 1374 1370 1365 1361 1357 1353 1349 1345 1341 1337 1335 1332
1457 1455 1453 1451 1449 1446 1444 1442 1440 1437 1434 1431 1428 1424 1421 1417 1414 1410 1407 1403 1398 1394 1390 1386 1382 1377 1374 1370 1368 1363 1359 1355 1351 1348 1344 1340 1337 1335
1455 1453 1451 1449 1447 1445 1442 1440 1438 1436 1433 1430 1427 1424 1420 1417 1413 1410 1406 1403 1399 1395 1391 1387 1383 1379 1375 1371 1368 1366 1361 1357 1353 1350 1346 1343 1340 1338
1453 1451 1449 1447 1445 1443 1441 1439 1436 1434 1432 1429 1426 1423 1420 1417 1413 1410 1406 1403 1399 1395 1391 1388 1385 1381 1378 1375 1370 1366 1364 1360 1356 1352 1349 1347 1344 1342
1451 1449 1447 1446 1444 1442 1439 1437 1435 1433 1430 1428 1425 1423 1420 1417 1413 1410 1407 1403 1400 1396 1392 1389 1386 1384 1380 1376 1372 1368 1366 1363 1360 1356 1353 1350 1347 1345
1449 1447 1446 1444 1442 1440 1438 1436 1434 1432 1429 1427 1424 1422 1419 1416 1413 1410 1407 1404 1400 1397 1394 1391 1388 1385 1381 1378 1374 1371 1367 1365 1362 1359 1356 1354 1351 1349
1447 1445 1444 1442 1440 1438 1436 1434 1432 1430 1428 1426 1424 1421 1419 1416 1413 1410 1407 1405 1402 1398 1395 1392 1389 1386 1383 1380 1377 1374 1371 1368 1365 1361 1359 1358 1356 1354